Location: Boiro
(42.6475°N, 8.8834°W)
Time: 06:12:48
(UTC+01:00)

Vanguard 1 - Pass Details

Date: 29 November 2021
Orbit: 652 x 3830 km, 34.2° (Epoch: 21 January)

Event Time Altitude Azimuth Distance (km) Brightness Sun altitude
Rises 02:02:05 0° 227° (SW) 7,564 - -67.4°
Reaches altitude 10° 02:07:11 10° 222° (SW) 6,748 - -67.0°
Maximum altitude 02:29:04 51° 155° (SSE) 4,255 - -64.8°
Exits shadow 02:38:23 34° 106° (ESE) 4,521 13.3 -63.7°
Drops below altitude 10° 02:46:45 10° 87° (E) 5,610 14.1 -62.7°
Sets 02:50:28 0° 83° (E) 6,273 14.5 -62.2°
